Year,Month,Day,Hour,Minute,Value (Times are PST for windspeed in km/hr)
2012,05,10,00,00,6.20
2012,05,10,00,01,4.50
2012,05,10,00,02,6.00
2012,05,10,00,03,5.10
2012,05,10,00,04,5.60
2012,05,10,00,05,4.10
2012,05,10,00,06,6.70
2012,05,10,00,07,6.00
2012,05,10,00,08,4.00
2012,05,10,00,09,4.70
2012,05,10,00,10,7.20
2012,05,10,00,11,2.70
2012,05,10,00,12,3.70
2012,05,10,00,18,3.20
2012,05,10,00,19,4.30
2012,05,10,00,20,8.10
2012,05,10,00,21,7.50
2012,05,10,00,22,12.30
2012,05,10,00,23,7.40
2012,05,10,00,24,4.80
2012,05,10,00,25,8.10
2012,05,10,00,26,4.70
2012,05,10,00,27,2.40
2012,05,10,00,28,3.90
2012,05,10,00,29,5.60
2012,05,10,00,30,7.40
2012,05,10,00,31,6.40
2012,05,10,00,32,6.00
2012,05,10,00,33,5.40
2012,05,10,00,34,7.30
2012,05,10,00,35,5.40
2012,05,10,00,36,5.80
2012,05,10,00,37,4.40
2012,05,10,00,38,3.50
2012,05,10,00,39,3.30
2012,05,10,00,40,8.20
2012,05,10,00,41,6.90
2012,05,10,00,42,3.30
2012,05,10,00,43,5.50
2012,05,10,00,44,6.40
2012,05,10,00,45,3.50
2012,05,10,00,46,3.70
2012,05,10,00,47,10.40
2012,05,10,00,48,6.50
2012,05,10,00,49,5.10
2012,05,10,00,50,5.10
2012,05,10,00,51,5.00
2012,05,10,00,52,4.30
2012,05,10,00,53,2.30
2012,05,10,00,54,6.30
2012,05,10,00,55,8.90
2012,05,10,00,56,7.60
2012,05,10,00,57,7.60
2012,05,10,00,58,7.40
2012,05,10,00,59,2.30
2012,05,10,01,00,4.00
2012,05,10,01,01,8.90
2012,05,10,01,02,3.50
2012,05,10,01,03,3.20
2012,05,10,01,04,3.40
2012,05,10,01,05,4.10
2012,05,10,01,06,4.90
2012,05,10,01,07,3.10
2012,05,10,01,08,2.80
2012,05,10,01,09,2.40
2012,05,10,01,10,6.00
2012,05,10,01,11,5.80
2012,05,10,01,12,6.60
2012,05,10,01,13,5.40
2012,05,10,01,14,4.40
2012,05,10,01,15,4.70
2012,05,10,01,16,5.10
2012,05,10,01,17,4.90
2012,05,10,01,18,8.40
2012,05,10,01,19,7.40
2012,05,10,01,20,6.70
2012,05,10,01,21,4.90
2012,05,10,01,22,4.70
2012,05,10,01,23,7.20
2012,05,10,01,24,5.60
2012,05,10,01,25,5.30
2012,05,10,01,26,3.50
2012,05,10,01,27,7.90
2012,05,10,01,28,4.80
2012,05,10,01,29,5.40
2012,05,10,01,30,7.30
2012,05,10,01,31,7.70
2012,05,10,01,32,6.30
2012,05,10,01,33,2.20
2012,05,10,01,34,7.40
2012,05,10,01,35,9.10
2012,05,10,01,36,6.20
2012,05,10,01,37,3.70
2012,05,10,01,38,3.40
2012,05,10,01,39,3.10
2012,05,10,01,40,5.80
2012,05,10,01,41,6.20
2012,05,10,01,42,7.30
2012,05,10,01,43,5.30
2012,05,10,01,44,2.60
2012,05,10,01,45,5.10
2012,05,10,01,46,3.90
2012,05,10,01,47,3.20
2012,05,10,01,48,4.10
2012,05,10,01,49,3.20
2012,05,10,01,50,5.10
2012,05,10,01,51,4.30
2012,05,10,01,52,4.80
2012,05,10,01,53,6.40
2012,05,10,01,54,6.70
2012,05,10,01,55,4.70
2012,05,10,01,56,3.90
2012,05,10,01,57,5.20
2012,05,10,01,58,4.40
2012,05,10,01,59,6.40
2012,05,10,02,00,5.40
2012,05,10,02,01,4.30
2012,05,10,02,02,3.80
2012,05,10,02,03,4.90
2012,05,10,02,04,5.80
2012,05,10,02,05,5.50
2012,05,10,02,06,6.80
2012,05,10,02,07,8.50
2012,05,10,02,08,5.80
2012,05,10,02,09,5.40
2012,05,10,02,10,7.00
2012,05,10,02,11,4.10
2012,05,10,02,12,2.80
2012,05,10,02,13,5.10
2012,05,10,02,14,6.50
2012,05,10,02,15,7.20
2012,05,10,02,16,6.00
2012,05,10,02,17,4.80
2012,05,10,02,18,6.20
2012,05,10,02,19,3.00
2012,05,10,02,20,4.70
2012,05,10,02,21,8.20
2012,05,10,02,22,3.90
2012,05,10,02,23,5.10
2012,05,10,02,24,3.80
2012,05,10,02,25,3.20
2012,05,10,02,26,5.10
2012,05,10,02,27,5.00
2012,05,10,02,28,6.80
2012,05,10,02,29,2.70
2012,05,10,02,30,3.00
2012,05,10,02,31,2.80
2012,05,10,02,32,5.90
2012,05,10,02,33,3.80
2012,05,10,02,34,1.70
2012,05,10,02,35,3.50
2012,05,10,02,36,5.00
2012,05,10,02,37,10.00
2012,05,10,02,38,8.20
2012,05,10,02,39,4.90
2012,05,10,02,40,5.80
2012,05,10,02,41,2.60
2012,05,10,02,42,2.30
2012,05,10,02,43,0.20
2012,05,10,02,44,4.30
2012,05,10,02,45,5.20
2012,05,10,02,46,0.40
2012,05,10,02,47,0.20
2012,05,10,02,48,2.40
2012,05,10,02,49,3.50
2012,05,10,02,50,3.50
2012,05,10,02,51,1.60
2012,05,10,02,52,5.30
2012,05,10,02,53,5.70
2012,05,10,02,54,6.00
2012,05,10,02,55,3.10
2012,05,10,02,56,3.90
2012,05,10,02,57,1.10
2012,05,10,02,58,0.20
2012,05,10,02,59,0.10
2012,05,10,03,00,1.90
2012,05,10,03,01,2.20
2012,05,10,03,02,2.60
2012,05,10,03,03,4.50
2012,05,10,03,04,5.30
2012,05,10,03,05,4.90
2012,05,10,03,06,4.70
2012,05,10,03,07,0.80
2012,05,10,03,08,0.60
2012,05,10,03,09,1.00
2012,05,10,03,10,4.20
2012,05,10,03,11,3.70
2012,05,10,03,12,1.00
2012,05,10,03,13,0.50
2012,05,10,03,14,0.30
2012,05,10,03,15,1.90
2012,05,10,03,16,0.90
2012,05,10,03,17,2.50
2012,05,10,03,18,3.20
2012,05,10,03,19,2.00
2012,05,10,03,20,4.70
2012,05,10,03,21,1.80
2012,05,10,03,22,3.00
2012,05,10,03,23,3.30
2012,05,10,03,24,4.20
2012,05,10,03,25,1.90
2012,05,10,03,26,1.50
2012,05,10,03,27,0.70
2012,05,10,03,28,1.10
2012,05,10,03,29,2.30
2012,05,10,03,30,3.90
2012,05,10,03,31,1.40
2012,05,10,03,32,1.20
2012,05,10,03,33,3.40
2012,05,10,03,34,2.80
2012,05,10,03,35,3.40
2012,05,10,03,36,3.00
2012,05,10,03,37,2.70
2012,05,10,03,38,5.00
2012,05,10,03,39,4.60
2012,05,10,03,40,4.50
2012,05,10,03,41,4.70
2012,05,10,03,42,2.90
2012,05,10,03,43,0.50
2012,05,10,03,44,1.00
2012,05,10,03,45,0.40
2012,05,10,03,46,1.60
2012,05,10,03,47,1.40
2012,05,10,03,48,0.10
2012,05,10,03,49,0.20
2012,05,10,03,50,1.20
2012,05,10,03,51,0.60
2012,05,10,03,52,0.00
2012,05,10,03,53,0.90
2012,05,10,03,54,0.30
2012,05,10,03,55,1.10
2012,05,10,03,56,3.40
2012,05,10,03,57,1.30
2012,05,10,03,58,3.90
2012,05,10,03,59,5.00
2012,05,10,04,00,2.50
2012,05,10,04,01,4.70
2012,05,10,04,02,2.80
2012,05,10,04,03,2.50
2012,05,10,04,04,4.50
2012,05,10,04,05,2.30
2012,05,10,04,06,1.10
2012,05,10,04,07,1.40
2012,05,10,04,08,3.20
2012,05,10,04,09,1.50
2012,05,10,04,10,3.80
2012,05,10,04,11,0.60
2012,05,10,04,12,3.40
2012,05,10,04,13,1.10
2012,05,10,04,14,3.30
2012,05,10,04,15,2.00
2012,05,10,04,16,2.30
2012,05,10,04,17,1.50
2012,05,10,04,18,1.40
2012,05,10,04,19,0.60
2012,05,10,04,20,2.40
2012,05,10,04,21,1.50
2012,05,10,04,22,2.20
2012,05,10,04,23,2.70
2012,05,10,04,24,2.80
2012,05,10,04,25,2.00
2012,05,10,04,26,2.40
2012,05,10,04,27,3.40
2012,05,10,04,28,4.10
2012,05,10,04,29,1.20
2012,05,10,04,30,4.40
2012,05,10,04,31,3.90
2012,05,10,04,32,2.80
2012,05,10,04,33,4.30
2012,05,10,04,34,2.00
2012,05,10,04,35,2.80
2012,05,10,04,36,4.30
2012,05,10,04,37,0.70
2012,05,10,04,38,1.00
2012,05,10,04,39,0.30
2012,05,10,04,40,0.60
2012,05,10,04,41,1.40
2012,05,10,04,42,2.40
2012,05,10,04,43,3.00
2012,05,10,04,44,3.80
2012,05,10,04,45,1.40
2012,05,10,04,46,2.70
2012,05,10,04,47,4.30
2012,05,10,04,48,4.10
2012,05,10,04,49,2.60
2012,05,10,04,50,2.50
2012,05,10,04,51,0.10
2012,05,10,04,52,0.70
2012,05,10,04,53,0.50
2012,05,10,04,54,0.00
2012,05,10,04,55,0.00
2012,05,10,04,56,0.00
2012,05,10,04,57,0.00
2012,05,10,04,58,0.00
2012,05,10,04,59,0.20
2012,05,10,05,00,0.00
2012,05,10,05,01,0.50
2012,05,10,05,02,0.00
2012,05,10,05,03,0.00
2012,05,10,05,04,0.20
2012,05,10,05,05,0.10
2012,05,10,05,06,1.70
2012,05,10,05,07,2.30
2012,05,10,05,08,0.10
2012,05,10,05,09,0.00
2012,05,10,05,10,0.00
2012,05,10,05,11,0.20
2012,05,10,05,12,0.80
2012,05,10,05,13,0.20
2012,05,10,05,14,2.10
2012,05,10,05,15,1.20
2012,05,10,05,16,0.40
2012,05,10,05,17,1.40
2012,05,10,05,18,0.20
2012,05,10,05,19,1.10
2012,05,10,05,20,0.00
2012,05,10,05,21,0.10
2012,05,10,05,22,1.10
2012,05,10,05,23,1.60
2012,05,10,05,24,0.00
2012,05,10,05,25,0.00
2012,05,10,05,26,0.10
2012,05,10,05,27,0.00
2012,05,10,05,28,0.40
2012,05,10,05,29,0.20
2012,05,10,05,30,0.00
2012,05,10,05,31,1.00
2012,05,10,05,32,0.20
2012,05,10,05,33,2.00
2012,05,10,05,34,0.70
2012,05,10,05,35,0.10
2012,05,10,05,36,0.10
2012,05,10,05,37,0.00
2012,05,10,05,38,0.00
2012,05,10,05,39,0.00
2012,05,10,05,40,0.00
2012,05,10,05,41,1.30
2012,05,10,05,42,0.40
2012,05,10,05,43,0.20
2012,05,10,05,44,0.60
2012,05,10,05,45,0.10
2012,05,10,05,46,0.30
2012,05,10,05,47,0.80
2012,05,10,05,48,1.30
2012,05,10,05,49,0.00
2012,05,10,05,50,0.00
2012,05,10,05,51,0.00
2012,05,10,05,52,0.70
2012,05,10,05,53,0.10
2012,05,10,05,54,0.30
2012,05,10,05,55,0.90
2012,05,10,05,56,0.70
2012,05,10,05,57,1.90
2012,05,10,05,58,0.80
2012,05,10,05,59,2.60
2012,05,10,06,00,2.50
2012,05,10,06,01,2.00
2012,05,10,06,02,0.00
2012,05,10,06,03,0.00
2012,05,10,06,04,0.60
2012,05,10,06,05,0.40
2012,05,10,06,06,0.00
2012,05,10,06,07,0.20
2012,05,10,06,08,1.00
2012,05,10,06,09,3.00
2012,05,10,06,10,3.20
2012,05,10,06,11,1.60
2012,05,10,06,12,0.30
2012,05,10,06,13,0.00
2012,05,10,06,14,0.10
2012,05,10,06,15,0.00
2012,05,10,06,16,0.10
2012,05,10,06,17,0.50
2012,05,10,06,18,0.10
2012,05,10,06,19,0.20
2012,05,10,06,20,0.20
2012,05,10,06,21,0.00
2012,05,10,06,22,0.50
2012,05,10,06,23,0.00
2012,05,10,06,24,0.00
2012,05,10,06,25,0.20
2012,05,10,06,26,0.00
2012,05,10,06,27,0.00
2012,05,10,06,28,1.30
2012,05,10,06,29,0.30
2012,05,10,06,30,0.00
2012,05,10,06,31,0.00
2012,05,10,06,32,0.00
2012,05,10,06,33,0.90
2012,05,10,06,34,0.60
2012,05,10,06,35,0.50
2012,05,10,06,36,0.00
2012,05,10,06,37,0.00
2012,05,10,06,38,0.20
2012,05,10,06,39,0.00
2012,05,10,06,40,0.00
2012,05,10,06,41,0.00
2012,05,10,06,42,0.00
2012,05,10,06,43,0.00
2012,05,10,06,44,0.00
2012,05,10,06,45,0.00
2012,05,10,06,46,0.00
2012,05,10,06,47,0.00
2012,05,10,06,48,0.00
2012,05,10,06,49,0.00
2012,05,10,06,50,0.00
2012,05,10,06,51,0.00
2012,05,10,06,52,0.00
2012,05,10,06,53,1.10
2012,05,10,06,54,0.00
2012,05,10,06,55,0.00
2012,05,10,06,56,0.00
2012,05,10,06,57,1.00
2012,05,10,06,58,2.20
2012,05,10,06,59,0.70
2012,05,10,07,00,0.30
2012,05,10,07,01,0.00
2012,05,10,07,02,0.00
2012,05,10,07,03,1.30
2012,05,10,07,04,0.20
2012,05,10,07,05,0.00
2012,05,10,07,06,1.40
2012,05,10,07,07,0.00
2012,05,10,07,08,0.00
2012,05,10,07,09,0.20
2012,05,10,07,10,0.80
2012,05,10,07,11,4.10
2012,05,10,07,12,2.70
2012,05,10,07,13,7.90
2012,05,10,07,14,4.50
2012,05,10,07,15,2.10
2012,05,10,07,16,1.60
2012,05,10,07,17,4.10
2012,05,10,07,18,6.00
2012,05,10,07,19,6.00
2012,05,10,07,20,1.40
2012,05,10,07,21,1.00
2012,05,10,07,22,2.50
2012,05,10,07,23,1.50
2012,05,10,07,24,3.90
2012,05,10,07,25,2.70
2012,05,10,07,26,7.60
2012,05,10,07,27,3.40
2012,05,10,07,28,3.70
2012,05,10,07,29,0.10
2012,05,10,07,30,0.40
2012,05,10,07,31,1.90
2012,05,10,07,32,0.40
2012,05,10,07,33,0.60
2012,05,10,07,34,6.60
2012,05,10,07,35,2.00
2012,05,10,07,36,3.50
2012,05,10,07,37,7.40
2012,05,10,07,38,4.60
2012,05,10,07,39,4.90
2012,05,10,07,40,6.30
2012,05,10,07,41,5.30
2012,05,10,07,42,7.20
2012,05,10,07,43,6.30
2012,05,10,07,44,6.00
2012,05,10,07,45,2.30
2012,05,10,07,46,3.90
2012,05,10,07,47,8.50
2012,05,10,07,48,6.60
2012,05,10,07,49,5.90
2012,05,10,07,50,5.90
2012,05,10,07,51,3.10
2012,05,10,07,52,1.70
2012,05,10,07,53,2.10
2012,05,10,07,54,2.40
2012,05,10,07,55,4.70
2012,05,10,07,56,4.10
2012,05,10,07,57,7.10
2012,05,10,07,58,3.70
2012,05,10,07,59,0.60
2012,05,10,08,00,2.30
2012,05,10,08,01,4.00
2012,05,10,08,02,6.80
2012,05,10,08,03,5.00
2012,05,10,08,04,4.90
2012,05,10,08,05,4.80
2012,05,10,08,06,7.00
2012,05,10,08,07,6.80
2012,05,10,08,08,5.40
2012,05,10,08,09,1.80
2012,05,10,08,10,0.60
2012,05,10,08,11,3.40
2012,05,10,08,12,5.20
2012,05,10,08,13,6.10
2012,05,10,08,14,5.20
2012,05,10,08,15,9.80
2012,05,10,08,16,5.70
2012,05,10,08,17,6.40
2012,05,10,08,18,4.20
2012,05,10,08,19,5.80
2012,05,10,08,20,2.90
2012,05,10,08,21,3.40
2012,05,10,08,22,6.70
2012,05,10,08,23,3.90
2012,05,10,08,24,4.10
2012,05,10,08,25,5.60
2012,05,10,08,26,2.80
2012,05,10,08,27,7.10
2012,05,10,08,28,8.80
2012,05,10,08,29,7.60
2012,05,10,08,30,5.40
2012,05,10,08,31,7.10
2012,05,10,08,32,4.70
2012,05,10,08,33,4.70
2012,05,10,08,34,5.10
2012,05,10,08,35,3.20
2012,05,10,08,36,4.60
2012,05,10,08,37,3.40
2012,05,10,08,38,3.70
2012,05,10,08,39,4.50
2012,05,10,08,40,6.50
2012,05,10,08,41,4.20
2012,05,10,08,42,0.50
2012,05,10,08,43,1.50
2012,05,10,08,44,3.40
2012,05,10,08,45,2.30
2012,05,10,08,46,4.50
2012,05,10,08,47,1.20
2012,05,10,08,48,1.70
2012,05,10,08,49,0.50
2012,05,10,08,50,0.30
2012,05,10,08,51,0.70
2012,05,10,08,52,4.10
2012,05,10,08,53,1.60
2012,05,10,08,54,1.30
2012,05,10,08,55,0.30
2012,05,10,08,56,3.40
2012,05,10,08,57,5.00
2012,05,10,08,58,0.40
2012,05,10,08,59,1.90
2012,05,10,09,00,6.20
2012,05,10,09,01,4.30
2012,05,10,09,02,2.40
2012,05,10,09,03,2.70
2012,05,10,09,04,2.00
2012,05,10,09,05,1.40
2012,05,10,09,06,1.10
2012,05,10,09,07,4.70
2012,05,10,09,08,6.40
2012,05,10,09,09,4.40
2012,05,10,09,10,4.50
2012,05,10,09,11,3.80
2012,05,10,09,12,3.10
2012,05,10,09,13,3.70
2012,05,10,09,14,3.40
2012,05,10,09,15,9.70
2012,05,10,09,16,8.50
2012,05,10,09,17,8.40
2012,05,10,09,18,7.30
2012,05,10,09,19,3.50
2012,05,10,09,20,7.50
2012,05,10,09,21,7.50
2012,05,10,09,22,6.90
2012,05,10,09,23,3.20
2012,05,10,09,24,4.20
2012,05,10,09,25,4.30
2012,05,10,09,26,1.80
2012,05,10,09,27,0.50
2012,05,10,09,28,0.90
2012,05,10,09,29,0.80
2012,05,10,09,30,0.00
2012,05,10,09,31,0.00
2012,05,10,09,32,0.40
2012,05,10,09,33,0.90
2012,05,10,09,34,0.70
2012,05,10,09,35,1.40
2012,05,10,09,36,2.90
2012,05,10,09,37,1.10
2012,05,10,09,38,7.40
2012,05,10,09,39,9.30
2012,05,10,09,40,3.40
2012,05,10,09,41,3.00
2012,05,10,09,42,0.00
2012,05,10,09,43,0.60
2012,05,10,09,44,0.60
2012,05,10,09,45,1.60
2012,05,10,09,46,0.20
2012,05,10,09,47,3.90
2012,05,10,09,48,3.50
2012,05,10,09,49,1.50
2012,05,10,09,50,4.50
2012,05,10,09,51,4.50
2012,05,10,09,52,3.40
2012,05,10,09,53,5.70
2012,05,10,09,54,3.70
2012,05,10,09,55,4.30
2012,05,10,09,56,5.00
2012,05,10,09,57,4.90
2012,05,10,09,58,2.80
2012,05,10,09,59,0.70
2012,05,10,10,00,3.00
2012,05,10,10,01,2.20
2012,05,10,10,02,0.20
2012,05,10,10,03,3.10
2012,05,10,10,04,2.50
2012,05,10,10,05,1.70
2012,05,10,10,06,3.30
2012,05,10,10,07,6.90
2012,05,10,10,08,2.70
2012,05,10,10,09,2.70
2012,05,10,10,10,12.00
2012,05,10,10,11,8.70
2012,05,10,10,12,13.80
2012,05,10,10,13,9.00
2012,05,10,10,14,6.90
2012,05,10,10,15,8.20
2012,05,10,10,16,6.00
2012,05,10,10,17,2.70
2012,05,10,10,18,2.10
2012,05,10,10,19,0.80
2012,05,10,10,20,0.10
2012,05,10,10,21,0.70
2012,05,10,10,22,1.80
2012,05,10,10,23,1.60
2012,05,10,10,24,1.40
2012,05,10,10,25,2.70
2012,05,10,10,26,0.50
2012,05,10,10,27,4.20
2012,05,10,10,28,3.30
2012,05,10,10,29,6.60
2012,05,10,10,30,5.10
2012,05,10,10,31,4.70
2012,05,10,10,32,4.80
2012,05,10,10,33,5.00
2012,05,10,10,34,3.50
2012,05,10,10,35,3.20
2012,05,10,10,36,6.00
2012,05,10,10,37,3.20
2012,05,10,10,38,2.00
2012,05,10,10,39,2.10
2012,05,10,10,40,4.70
2012,05,10,10,41,4.10
2012,05,10,10,42,1.20
2012,05,10,10,43,5.70
2012,05,10,10,44,1.90
2012,05,10,10,45,2.20
2012,05,10,10,46,1.50
2012,05,10,10,47,5.70
2012,05,10,10,48,5.80
2012,05,10,10,49,9.30
2012,05,10,10,50,3.50
2012,05,10,10,51,2.80
2012,05,10,10,52,3.10
2012,05,10,10,53,0.90
2012,05,10,10,54,4.70
2012,05,10,10,55,5.30
2012,05,10,10,56,2.00
2012,05,10,10,57,7.40
2012,05,10,10,58,12.70
2012,05,10,10,59,11.20
2012,05,10,11,00,12.50
2012,05,10,11,01,7.40
2012,05,10,11,02,8.20
2012,05,10,11,03,10.90
2012,05,10,11,04,9.30
2012,05,10,11,05,6.10
2012,05,10,11,06,5.60
2012,05,10,11,07,13.30
2012,05,10,11,08,16.70
2012,05,10,11,09,11.10
2012,05,10,11,10,10.80
2012,05,10,11,11,7.30
2012,05,10,11,12,5.80
2012,05,10,11,13,1.30
2012,05,10,11,14,10.50
2012,05,10,11,15,9.00
2012,05,10,11,16,11.20
2012,05,10,11,17,11.40
2012,05,10,11,18,8.40
2012,05,10,11,19,4.70
2012,05,10,11,20,3.80
2012,05,10,11,21,6.80
2012,05,10,11,22,11.80
2012,05,10,11,23,8.60
2012,05,10,11,24,5.60
2012,05,10,11,25,5.30
2012,05,10,11,26,3.00
2012,05,10,11,27,5.40
2012,05,10,11,28,2.30
2012,05,10,11,29,7.60
2012,05,10,11,30,9.90
2012,05,10,11,31,7.20
2012,05,10,11,32,2.40
2012,05,10,11,33,2.50
2012,05,10,11,34,2.00
2012,05,10,11,35,2.80
2012,05,10,11,36,8.70
2012,05,10,11,37,7.40
2012,05,10,11,38,12.70
2012,05,10,11,39,8.70
2012,05,10,11,40,6.80
2012,05,10,11,41,2.50
2012,05,10,11,42,4.50
2012,05,10,11,43,7.10
2012,05,10,11,44,6.00
2012,05,10,11,45,6.60
2012,05,10,11,46,5.00
2012,05,10,11,47,2.70
2012,05,10,11,48,5.80
2012,05,10,11,49,5.80
2012,05,10,11,50,3.10
2012,05,10,11,51,2.50
2012,05,10,11,52,6.20
2012,05,10,11,53,8.30
2012,05,10,11,54,7.10
2012,05,10,11,55,5.20
2012,05,10,11,56,4.70
2012,05,10,11,57,2.20
2012,05,10,11,58,8.60
2012,05,10,11,59,7.20
2012,05,10,12,00,5.40
2012,05,10,12,01,13.90
2012,05,10,12,02,8.00
2012,05,10,12,03,8.60
2012,05,10,12,04,8.50
2012,05,10,12,05,5.80
2012,05,10,12,06,5.40
2012,05,10,12,07,8.00
2012,05,10,12,08,1.90
2012,05,10,12,09,2.70
2012,05,10,12,10,2.80
2012,05,10,12,11,3.50
2012,05,10,12,12,0.90
2012,05,10,12,13,3.20
2012,05,10,12,14,1.90
2012,05,10,12,15,0.80
2012,05,10,12,16,3.30
2012,05,10,12,17,4.30
2012,05,10,12,18,5.70
2012,05,10,12,19,5.50
2012,05,10,12,20,6.30
2012,05,10,12,21,6.40
2012,05,10,12,22,3.80
2012,05,10,12,23,6.70
2012,05,10,12,24,4.90
2012,05,10,12,25,2.40
2012,05,10,12,26,4.00
2012,05,10,12,27,3.50
2012,05,10,12,28,1.20
2012,05,10,12,29,1.10
2012,05,10,12,30,3.90
2012,05,10,12,31,4.30
2012,05,10,12,32,3.40
2012,05,10,12,33,0.50
2012,05,10,12,34,0.60
2012,05,10,12,35,2.50
2012,05,10,12,36,7.80
2012,05,10,12,37,5.30
2012,05,10,12,38,8.20
2012,05,10,12,39,3.90
2012,05,10,12,40,7.80
2012,05,10,12,41,8.30
2012,05,10,12,42,4.50
2012,05,10,12,43,1.00
2012,05,10,12,44,5.70
2012,05,10,12,45,6.20
2012,05,10,12,46,2.00
2012,05,10,12,47,10.50
2012,05,10,12,48,5.20
2012,05,10,12,49,4.20
2012,05,10,12,50,1.10
2012,05,10,12,51,2.30
2012,05,10,12,52,10.00
2012,05,10,12,53,6.40
2012,05,10,12,54,6.50
2012,05,10,12,55,6.80
2012,05,10,12,56,1.30
2012,05,10,12,57,6.60
2012,05,10,12,58,6.50
2012,05,10,12,59,9.60
2012,05,10,13,00,4.70
2012,05,10,13,01,3.50
2012,05,10,13,02,4.70
2012,05,10,13,03,4.70
2012,05,10,13,04,4.70
2012,05,10,13,05,10.20
2012,05,10,13,06,10.30
2012,05,10,13,07,4.40
2012,05,10,13,08,0.20
2012,05,10,13,09,0.50
2012,05,10,13,10,0.00
2012,05,10,13,11,2.30
2012,05,10,13,12,2.30
2012,05,10,13,13,6.40
2012,05,10,13,14,1.00
2012,05,10,13,15,3.50
2012,05,10,13,16,1.90
2012,05,10,13,17,5.00
2012,05,10,13,18,2.90
2012,05,10,13,19,8.10
2012,05,10,13,20,11.90
2012,05,10,13,21,10.10
2012,05,10,13,22,11.70
2012,05,10,13,23,11.50
2012,05,10,13,24,9.20
2012,05,10,13,25,3.80
2012,05,10,13,26,4.30
2012,05,10,13,27,7.00
2012,05,10,13,28,7.70
2012,05,10,13,29,5.90
2012,05,10,13,30,15.70
2012,05,10,13,31,11.30
2012,05,10,13,32,6.80
2012,05,10,13,33,3.50
2012,05,10,13,34,9.10
2012,05,10,13,35,13.20
2012,05,10,13,36,8.50
2012,05,10,13,37,6.80
2012,05,10,13,38,4.50
2012,05,10,13,39,3.10
2012,05,10,13,40,7.60
2012,05,10,13,41,11.10
2012,05,10,13,42,6.80
2012,05,10,13,43,4.00
2012,05,10,13,44,10.00
2012,05,10,13,45,3.90
2012,05,10,13,46,1.70
2012,05,10,13,47,8.90
2012,05,10,13,48,10.20
2012,05,10,13,49,5.20
2012,05,10,13,50,5.10
2012,05,10,13,51,4.20
2012,05,10,13,52,14.20
2012,05,10,13,53,9.40
2012,05,10,13,54,11.00
2012,05,10,13,55,13.00
2012,05,10,13,56,13.40
2012,05,10,13,57,12.00
2012,05,10,13,58,14.40
2012,05,10,13,59,14.40
2012,05,10,14,00,16.70
2012,05,10,14,01,14.60
2012,05,10,14,02,9.70
2012,05,10,14,03,10.60
2012,05,10,14,04,6.40
2012,05,10,14,05,7.50
2012,05,10,14,06,10.40
2012,05,10,14,07,20.00
2012,05,10,14,08,16.40
2012,05,10,14,09,21.00
2012,05,10,14,10,12.90
2012,05,10,14,11,11.30
2012,05,10,14,12,11.00
2012,05,10,14,13,13.00
2012,05,10,14,14,13.70
2012,05,10,14,15,14.90
2012,05,10,14,16,10.70
2012,05,10,14,17,8.50
2012,05,10,14,18,11.90
2012,05,10,14,19,13.10
2012,05,10,14,20,13.30
2012,05,10,14,21,13.00
2012,05,10,14,22,11.30
2012,05,10,14,23,11.80
2012,05,10,14,24,8.20
2012,05,10,14,25,13.80
2012,05,10,14,26,18.70
2012,05,10,14,27,16.50
2012,05,10,14,28,12.40
2012,05,10,14,29,9.20
2012,05,10,14,30,9.60
2012,05,10,14,31,12.80
2012,05,10,14,32,11.90
2012,05,10,14,33,11.80
2012,05,10,14,34,11.80
2012,05,10,14,35,10.40
2012,05,10,14,36,11.50
2012,05,10,14,37,15.00
2012,05,10,14,38,10.90
2012,05,10,14,39,10.50
2012,05,10,14,40,7.30
2012,05,10,14,41,6.80
2012,05,10,14,42,9.30
2012,05,10,14,43,17.10
2012,05,10,14,44,8.10
2012,05,10,14,45,10.00
2012,05,10,14,46,15.60
2012,05,10,14,47,20.50
2012,05,10,14,48,18.20
2012,05,10,14,49,15.40
2012,05,10,14,50,12.80
2012,05,10,14,51,12.90
2012,05,10,14,52,15.00
2012,05,10,14,53,12.40
2012,05,10,14,54,6.40
2012,05,10,14,55,12.80
2012,05,10,14,56,7.70
2012,05,10,14,57,7.40
2012,05,10,14,58,16.60
2012,05,10,14,59,10.40
2012,05,10,15,00,11.10
2012,05,10,15,01,13.70
2012,05,10,15,02,7.70
2012,05,10,15,03,14.70
2012,05,10,15,04,12.70
2012,05,10,15,05,7.90
2012,05,10,15,06,12.90
2012,05,10,15,07,13.80
2012,05,10,15,08,6.40
2012,05,10,15,09,7.90
2012,05,10,15,10,15.00
2012,05,10,15,11,10.70
2012,05,10,15,12,11.20
2012,05,10,15,13,14.20
2012,05,10,15,14,10.90
2012,05,10,15,15,17.80
2012,05,10,15,16,19.90
2012,05,10,15,17,15.40
2012,05,10,15,18,9.30
2012,05,10,15,19,9.10
2012,05,10,15,20,12.00
2012,05,10,15,21,11.00
2012,05,10,15,22,9.90
2012,05,10,15,23,14.60
2012,05,10,15,24,14.20
2012,05,10,15,25,11.30
2012,05,10,15,26,11.20
2012,05,10,15,27,12.30
2012,05,10,15,28,8.90
2012,05,10,15,29,10.10
2012,05,10,15,30,9.70
2012,05,10,15,31,8.90
2012,05,10,15,32,10.40
2012,05,10,15,33,12.40
2012,05,10,15,34,10.90
2012,05,10,15,35,10.50
2012,05,10,15,36,11.40
2012,05,10,15,37,9.90
2012,05,10,15,38,6.00
2012,05,10,15,39,8.80
2012,05,10,15,40,10.80
2012,05,10,15,41,10.90
2012,05,10,15,42,13.50
2012,05,10,15,43,16.50
2012,05,10,15,44,15.10
2012,05,10,15,45,10.90
2012,05,10,15,46,11.30
2012,05,10,15,47,14.00
2012,05,10,15,48,15.10
2012,05,10,15,49,16.00
2012,05,10,15,50,13.30
2012,05,10,15,51,16.30
2012,05,10,15,52,12.00
2012,05,10,15,53,14.00
2012,05,10,15,54,8.60
2012,05,10,15,55,16.60
2012,05,10,15,56,11.80
2012,05,10,15,57,10.70
2012,05,10,15,58,10.80
2012,05,10,15,59,14.50
2012,05,10,16,00,14.30
2012,05,10,16,01,7.90
2012,05,10,16,02,10.10
2012,05,10,16,03,9.90
2012,05,10,16,04,12.40
2012,05,10,16,05,17.40
2012,05,10,16,06,15.70
2012,05,10,16,07,10.50
2012,05,10,16,08,17.40
2012,05,10,16,09,11.20
2012,05,10,16,10,14.20
2012,05,10,16,11,14.50
2012,05,10,16,12,13.20
2012,05,10,16,13,8.70
2012,05,10,16,14,5.90
2012,05,10,16,15,6.80
2012,05,10,16,16,8.40
2012,05,10,16,17,4.10
2012,05,10,16,18,3.80
2012,05,10,16,19,8.70
2012,05,10,16,20,7.00
2012,05,10,16,21,8.10
2012,05,10,16,22,5.10
2012,05,10,16,23,7.70
2012,05,10,16,24,8.50
2012,05,10,16,25,12.40
2012,05,10,16,26,10.70
2012,05,10,16,27,9.00
2012,05,10,16,28,6.30
2012,05,10,16,29,10.00
2012,05,10,16,30,13.70
2012,05,10,16,31,14.20
2012,05,10,16,32,9.10
2012,05,10,16,33,10.10
2012,05,10,16,34,8.90
2012,05,10,16,35,6.80
2012,05,10,16,36,5.90
2012,05,10,16,37,4.80
2012,05,10,16,38,9.80
2012,05,10,16,39,7.80
2012,05,10,16,40,7.00
2012,05,10,16,41,8.30
2012,05,10,16,42,7.70
2012,05,10,16,43,8.40
2012,05,10,16,44,14.50
2012,05,10,16,45,8.90
2012,05,10,16,46,8.70
2012,05,10,16,47,8.30
2012,05,10,16,48,5.10
2012,05,10,16,49,5.10
2012,05,10,16,50,6.20
2012,05,10,16,51,2.50
2012,05,10,16,52,1.90
2012,05,10,16,53,6.40
2012,05,10,16,54,5.70
2012,05,10,16,55,8.40
2012,05,10,16,56,6.40
2012,05,10,16,57,5.50
2012,05,10,16,58,5.50
2012,05,10,16,59,6.80
2012,05,10,17,00,4.90
2012,05,10,17,01,5.50
2012,05,10,17,02,2.50
2012,05,10,17,03,3.50
2012,05,10,17,04,7.30
2012,05,10,17,05,6.00
2012,05,10,17,06,5.40
2012,05,10,17,07,4.40
2012,05,10,17,08,3.10
2012,05,10,17,09,4.10
2012,05,10,17,10,1.80
2012,05,10,17,11,5.10
2012,05,10,17,12,9.50
2012,05,10,17,13,7.80
2012,05,10,17,14,5.10
2012,05,10,17,15,0.40
2012,05,10,17,16,2.30
2012,05,10,17,17,6.10
2012,05,10,17,18,6.90
2012,05,10,17,19,5.80
2012,05,10,17,20,4.40
2012,05,10,17,21,1.50
2012,05,10,17,22,0.40
2012,05,10,17,23,0.20
2012,05,10,17,24,3.20
2012,05,10,17,25,4.50
2012,05,10,17,26,4.70
2012,05,10,17,27,2.90
2012,05,10,17,28,6.60
2012,05,10,17,29,8.60
2012,05,10,17,30,9.50
2012,05,10,17,31,6.80
2012,05,10,17,32,10.40
2012,05,10,17,33,12.00
2012,05,10,17,34,10.50
2012,05,10,17,35,9.70
2012,05,10,17,36,12.20
2012,05,10,17,37,7.60
2012,05,10,17,38,7.40
2012,05,10,17,39,6.00
2012,05,10,17,40,6.50
2012,05,10,17,41,6.20
2012,05,10,17,42,10.70
2012,05,10,17,43,11.40
2012,05,10,17,44,10.80
2012,05,10,17,45,8.60
2012,05,10,17,46,7.70
2012,05,10,17,47,7.00
2012,05,10,17,48,3.60
2012,05,10,17,49,4.20
2012,05,10,17,50,3.80
2012,05,10,17,51,5.30
2012,05,10,17,52,3.40
2012,05,10,17,53,1.50
2012,05,10,17,54,2.60
2012,05,10,17,55,5.90
2012,05,10,17,56,2.90
2012,05,10,17,57,6.00
2012,05,10,17,58,4.20
2012,05,10,17,59,3.10
2012,05,10,18,00,2.60
2012,05,10,18,01,3.90
2012,05,10,18,02,3.20
2012,05,10,18,03,3.50
2012,05,10,18,04,6.40